| time (UTC) | temp F | wind direction | speed MPH | gust MPH | rain 1hr in | rain 24hr in | rain mn in | humidity % | barometer mb |
| 20260904021016 | 86 | 135 | 5.0 | 10.0 | 0.00 | 0.00 | 0.00 | 51 | 1013.5 |
| 20260904020018 | 86 | 135 | 5.0 | 11.0 | 0.00 | 0.00 | 0.00 | 50 | 1013.1 |
| 20260904015017 | 87 | 135 | 5.0 | 12.0 | 0.00 | 0.00 | 0.00 | 48 | 1012.7 |
| 20260904014016 | 87 | 157 | 4.0 | 6.0 | 0.00 | 0.00 | 0.00 | 48 | 1012.6 |
| 20260904013038 | 87 | 157 | 4.0 | 9.0 | 0.00 | 0.00 | 0.00 | 47 | 1012.5 |
| 20260904012016 | 88 | 157 | 5.0 | 9.0 | 0.00 | 0.00 | 0.00 | 47 | 1012.5 |
| 20260904011017 | 88 | 157 | 5.0 | 10.0 | 0.00 | 0.00 | 0.00 | 46 | 1012.5 |
| 20260904010100 | 88 | 157 | 4.0 | 9.0 | 0.00 | 0.00 | 0.00 | 46 | 1012.5 |
| 20260904005016 | 89 | 157 | 5.0 | 9.0 | 0.00 | 0.00 | 0.00 | 46 | 1012.5 |
| 20260904003016 | 90 | 180 | 5.0 | 12.0 | 0.00 | 0.00 | 0.00 | 45 | 1012.4 |
| 20260904001018 | 91 | 157 | 5.0 | 13.0 | 0.00 | 0.00 | 0.00 | 44 | 1012.2 |
| 20260903235016 | 92 | 135 | 7.0 | 13.0 | 0.00 | 0.00 | 0.00 | 43 | 1012.2 |
| 20260903234016 | 93 | 157 | 5.0 | 10.0 | 0.00 | 0.00 | 0.00 | 41 | 1012.1 |
| 20260903232016 | 95 | 157 | 5.0 | 11.0 | 0.00 | 0.00 | 0.00 | 37 | 1012.1 |
| 20260903231016 | 95 | 157 | 3.0 | 5.0 | 0.00 | 0.00 | 0.00 | 36 | 1012.2 |
| 20260903230117 | 95 | 135 | 3.0 | 5.0 | 0.00 | 0.00 | 0.00 | 37 | 1012.2 |
| 20260903225016 | 95 | 157 | 4.0 | 13.0 | 0.00 | 0.00 | 0.00 | 37 | 1012.1 |
| 20260903224117 | 95 | 157 | 4.0 | 8.0 | 0.00 | 0.00 | 0.00 | 37 | 1012.2 |
| 20260903223018 | 96 | 135 | 4.0 | 7.0 | 0.00 | 0.00 | 0.00 | 36 | 1012.2 |
| 20260903222016 | 97 | 135 | 4.0 | 7.0 | 0.00 | 0.00 | 0.00 | 35 | 1012.3 |
| 20260903221017 | 98 | 135 | 3.0 | 7.0 | 0.00 | 0.00 | 0.00 | 34 | 1012.4 |
| 20260903220016 | 98 | 180 | 4.0 | 6.0 | 0.00 | 0.00 | 0.00 | 34 | 1012.5 |
| 20260903214017 | 97 | 135 | 4.0 | 7.0 | 0.00 | 0.00 | 0.00 | 35 | 1012.4 |
| 20260903213017 | 96 | 112 | 4.0 | 7.0 | 0.00 | 0.00 | 0.00 | 36 | 1012.5 |
| 20260903212022 | 96 | 112 | 4.0 | 7.0 | 0.00 | 0.00 | 0.00 | 36 | 1012.5 |
| 20260903211016 | 96 | 90 | 5.0 | 12.0 | 0.00 | 0.00 | 0.00 | 36 | 1012.7 |
| 20260903210016 | 98 | 90 | 5.0 | 10.0 | 0.00 | 0.00 | 0.00 | 35 | 1013.0 |
| 20260903205021 | 100 | 135 | 5.0 | 10.0 | 0.00 | 0.00 | 0.00 | 34 | 1013.1 |
| 20260903204017 | 98 | 180 | 4.0 | 10.0 | 0.00 | 0.00 | 0.00 | 35 | 1013.2 |
| 20260903203016 | 96 | 90 | 5.0 | 11.0 | 0.00 | 0.00 | 0.00 | 37 | 1013.3 |
| 20260903202016 | 95 | 202 | 2.0 | 5.0 | 0.00 | 0.00 | 0.00 | 38 | 1013.4 |
| 20260903201117 | 95 | 202 | 3.0 | 5.0 | 0.00 | 0.00 | 0.00 | 38 | 1013.4 |
| 20260903200018 | 95 | 202 | 2.0 | 4.0 | 0.00 | 0.00 | 0.00 | 38 | 1013.6 |
| 20260903195016 | 97 | 180 | 6.0 | 11.0 | 0.00 | 0.00 | 0.00 | 36 | 1014.0 |
| 20260903194017 | 97 | 90 | 4.0 | 16.0 | 0.00 | 0.00 | 0.00 | 36 | 1014.1 |
| 20260903193016 | 97 | 157 | 8.0 | 15.0 | 0.00 | 0.00 | 0.00 | 37 | 1014.1 |
| 20260903192018 | 97 | 202 | 4.0 | 11.0 | 0.00 | 0.00 | 0.00 | 38 | 1014.3 |
| 20260903191016 | 97 | 202 | 5.0 | 11.0 | 0.00 | 0.00 | 0.00 | 38 | 1014.4 |
| 20260903185018 | 96 | 292 | 4.0 | 15.0 | 0.00 | 0.00 | 0.00 | 40 | 1014.9 |
| 20260903184017 | 96 | 202 | 8.0 | 14.0 | 0.00 | 0.00 | 0.00 | 39 | 1015.1 |
| 20260903183016 | 94 | 180 | 4.0 | 10.0 | 0.00 | 0.00 | 0.00 | 41 | 1015.2 |
| 20260903182017 | 96 | 202 | 9.0 | 17.0 | 0.00 | 0.00 | 0.00 | 40 | 1015.5 |
| 20260903181017 | 95 | 202 | 7.0 | 15.0 | 0.00 | 0.00 | 0.00 | 41 | 1015.5 |
| 20260903180017 | 94 | 202 | 6.0 | 17.0 | 0.00 | 0.00 | 0.00 | 41 | 1015.6 |
| 20260903175017 | 95 | 202 | 8.0 | 18.0 | 0.00 | 0.00 | 0.00 | 41 | 1016.0 |
| 20260903174017 | 93 | 202 | 9.0 | 14.0 | 0.00 | 0.00 | 0.00 | 43 | 1016.1 |
| 20260903173017 | 93 | 180 | 9.0 | 16.0 | 0.00 | 0.00 | 0.00 | 44 | 1016.2 |
| 20260903172017 | 93 | 180 | 7.0 | 12.0 | 0.00 | 0.00 | 0.00 | 45 | 1016.3 |
| 20260903171017 | 92 | 180 | 7.0 | 12.0 | 0.00 | 0.00 | 0.00 | 45 | 1016.3 |
| 20260903170017 | 93 | 202 | 9.0 | 16.0 | 0.00 | 0.00 | 0.00 | 45 | 1016.1 |
| 20260903165017 | 92 | 202 | 7.0 | 18.0 | 0.00 | 0.00 | 0.00 | 47 | 1016.3 |
| 20260903164017 | 91 | 202 | 10.0 | 20.0 | 0.00 | 0.00 | 0.00 | 48 | 1016.2 |
| 20260903163017 | 90 | 202 | 8.0 | 15.0 | 0.00 | 0.00 | 0.00 | 47 | 1016.3 |
| 20260903162017 | 89 | 180 | 7.0 | 15.0 | 0.00 | 0.00 | 0.00 | 50 | 1016.3 |
| 20260903161019 | 88 | 202 | 11.0 | 18.0 | 0.00 | 0.00 | 0.00 | 51 | 1016.2 |
| 20260903160017 | 87 | 202 | 10.0 | 16.0 | 0.00 | 0.00 | 0.00 | 53 | 1016.1 |
| 20260903155017 | 87 | 202 | 8.0 | 16.0 | 0.00 | 0.00 | 0.00 | 54 | 1016.1 |
| 20260903154017 | 86 | 202 | 10.0 | 16.0 | 0.00 | 0.00 | 0.00 | 56 | 1016.1 |
| 20260903153017 | 85 | 202 | 9.0 | 14.0 | 0.00 | 0.00 | 0.00 | 58 | 1016.0 |
| 20260903152017 | 84 | 202 | 9.0 | 13.0 | 0.00 | 0.00 | 0.00 | 61 | 1016.2 |
| 20260903151017 | 83 | 202 | 8.0 | 16.0 | 0.00 | 0.00 | 0.00 | 63 | 1016.0 |
| 20260903150017 | 82 | 202 | 8.0 | 13.0 | 0.00 | 0.00 | 0.00 | 68 | 1015.9 |
| 20260903145017 | 81 | 202 | 9.0 | 14.0 | 0.00 | 0.00 | 0.00 | 71 | 1015.9 |
| 20260903143117 | 80 | 180 | 9.0 | 15.0 | 0.00 | 0.00 | 0.00 | 74 | 1015.8 |
| 20260903142015 | 78 | 180 | 10.0 | 17.0 | 0.00 | 0.00 | 0.00 | 78 | 1015.9 |
| 20260903141017 | 78 | 202 | 10.0 | 16.0 | 0.00 | 0.00 | 0.00 | 79 | 1015.8 |
| 20260903140020 | 77 | 202 | 12.0 | 16.0 | 0.00 | 0.00 | 0.00 | 81 | 1015.7 |
| 20260903134022 | 75 | 180 | 11.0 | 18.0 | 0.00 | 0.00 | 0.00 | 85 | 1015.9 |
| 20260903133117 | 75 | 202 | 8.0 | 14.0 | 0.00 | 0.00 | 0.00 | 86 | 1015.7 |
| 20260903131017 | 74 | 180 | 8.0 | 13.0 | 0.00 | 0.00 | 0.00 | 88 | 1015.8 |
| 20260903130118 | 73 | 180 | 7.0 | 12.0 | 0.00 | 0.00 | 0.00 | 88 | 1015.6 |
| 20260903125017 | 73 | 180 | 6.0 | 11.0 | 0.00 | 0.00 | 0.00 | 88 | 1015.6 |
| 20260903124017 | 73 | 180 | 6.0 | 12.0 | 0.00 | 0.00 | 0.00 | 88 | 1015.6 |
| 20260903123015 | 73 | 180 | 6.0 | 11.0 | 0.00 | 0.00 | 0.00 | 88 | 1015.7 |
| 20260903122015 | 73 | 180 | 6.0 | 12.0 | 0.00 | 0.00 | 0.00 | 88 | 1015.6 |
| 20260903121115 | 73 | 202 | 6.0 | 12.0 | 0.00 | 0.00 | 0.00 | 87 | 1015.5 |
| 20260903120015 | 73 | 180 | 8.0 | 12.0 | 0.00 | 0.00 | 0.00 | 87 | 1015.6 |
| 20260903114015 | 73 | 202 | 7.0 | 12.0 | 0.00 | 0.00 | 0.00 | 86 | 1015.5 |
| 20260903113015 | 73 | 180 | 7.0 | 11.0 | 0.00 | 0.00 | 0.00 | 86 | 1015.7 |
| 20260903112015 | 73 | 180 | 8.0 | 13.0 | 0.00 | 0.00 | 0.00 | 85 | 1015.5 |
| 20260903111015 | 74 | 180 | 8.0 | 14.0 | 0.00 | 0.00 | 0.00 | 85 | 1015.6 |
| 20260903110015 | 74 | 180 | 8.0 | 12.0 | 0.00 | 0.00 | 0.00 | 84 | 1015.8 |
| 20260903105015 | 74 | 180 | 8.0 | 14.0 | 0.00 | 0.00 | 0.00 | 84 | 1015.6 |
| 20260903104015 | 74 | 180 | 7.0 | 14.0 | 0.00 | 0.00 | 0.00 | 83 | 1015.5 |
| 20260903103015 | 74 | 180 | 6.0 | 11.0 | 0.00 | 0.00 | 0.00 | 82 | 1015.6 |
| 20260903102015 | 75 | 180 | 7.0 | 12.0 | 0.00 | 0.00 | 0.00 | 81 | 1015.6 |
| 20260903101015 | 75 | 180 | 7.0 | 12.0 | 0.00 | 0.00 | 0.00 | 81 | 1015.6 |
| 20260903100015 | 75 | 202 | 8.0 | 14.0 | 0.00 | 0.00 | 0.00 | 80 | 1015.6 |
| 20260903095015 | 75 | 180 | 6.0 | 12.0 | 0.00 | 0.00 | 0.00 | 80 | 1015.8 |
| 20260903094015 | 75 | 180 | 7.0 | 13.0 | 0.00 | 0.00 | 0.00 | 79 | 1015.9 |
| 20260903093015 | 75 | 180 | 6.0 | 9.0 | 0.00 | 0.00 | 0.00 | 78 | 1015.8 |
| 20260903092015 | 76 | 180 | 6.0 | 11.0 | 0.00 | 0.00 | 0.00 | 78 | 1015.8 |
| 20260903091015 | 76 | 180 | 5.0 | 9.0 | 0.00 | 0.00 | 0.00 | 77 | 1015.8 |
| 20260903090015 | 76 | 180 | 4.0 | 7.0 | 0.00 | 0.00 | 0.00 | 77 | 1015.8 |
| 20260903085015 | 76 | 180 | 5.0 | 10.0 | 0.00 | 0.00 | 0.00 | 76 | 1015.7 |
| 20260903084015 | 77 | 180 | 8.0 | 12.0 | 0.00 | 0.00 | 0.00 | 76 | 1015.6 |
| 20260903083015 | 77 | 180 | 8.0 | 13.0 | 0.00 | 0.00 | 0.00 | 75 | 1015.8 |
| 20260903082015 | 77 | 202 | 8.0 | 17.0 | 0.00 | 0.00 | 0.00 | 74 | 1016.0 |
| 20260903081015 | 77 | 180 | 8.0 | 15.0 | 0.00 | 0.00 | 0.00 | 74 | 1015.9 |
| 20260903080015 | 77 | 180 | 7.0 | 11.0 | 0.00 | 0.00 | 0.00 | 73 | 1016.1 |
| 20260903075015 | 77 | 202 | 7.0 | 14.0 | 0.00 | 0.00 | 0.00 | 71 | 1016.1 |
| 20260903074015 | 77 | 202 | 8.0 | 11.0 | 0.00 | 0.00 | 0.00 | 71 | 1016.1 |
| 20260903073015 | 77 | 202 | 7.0 | 13.0 | 0.00 | 0.00 | 0.00 | 71 | 1016.4 |
| 20260903072015 | 77 | 180 | 7.0 | 12.0 | 0.00 | 0.00 | 0.00 | 70 | 1016.4 |
| 20260903070015 | 77 | 180 | 3.0 | 5.0 | 0.00 | 0.00 | 0.00 | 66 | 1016.2 |
| 20260903065015 | 78 | 180 | 4.0 | 6.0 | 0.00 | 0.00 | 0.00 | 65 | 1016.1 |
| 20260903064015 | 78 | 180 | 4.0 | 7.0 | 0.00 | 0.00 | 0.00 | 63 | 1016.2 |
| 20260903063016 | 78 | 180 | 5.0 | 9.0 | 0.00 | 0.00 | 0.00 | 63 | 1016.5 |
| 20260903062015 | 79 | 180 | 7.0 | 13.0 | 0.00 | 0.00 | 0.00 | 61 | 1016.5 |
| 20260903060015 | 80 | 180 | 7.0 | 12.0 | 0.00 | 0.00 | 0.00 | 57 | 1016.2 |
| 20260903055020 | 80 | 180 | 6.0 | 11.0 | 0.00 | 0.00 | 0.00 | 56 | 1016.4 |
| 20260903053020 | 82 | 180 | 7.0 | 15.0 | 0.00 | 0.00 | 0.00 | 51 | 1016.3 |
| 20260903052015 | 81 | 180 | 4.0 | 9.0 | 0.00 | 0.00 | 0.00 | 52 | 1016.1 |
| 20260903051015 | 81 | 180 | 3.0 | 6.0 | 0.00 | 0.00 | 0.00 | 52 | 1016.0 |
| 20260903050015 | 80 | 180 | 3.0 | 5.0 | 0.00 | 0.00 | 0.00 | 53 | 1015.9 |
| 20260903045017 | 80 | 157 | 2.0 | 5.0 | 0.00 | 0.00 | 0.00 | 54 | 1016.0 |
| 20260903044017 | 80 | 157 | 2.0 | 3.0 | 0.00 | 0.00 | 0.00 | 54 | 1016.0 |
| 20260903043017 | 80 | 157 | 2.0 | 4.0 | 0.00 | 0.00 | 0.00 | 54 | 1015.8 |
| 20260903042017 | 81 | 157 | 2.0 | 3.0 | 0.00 | 0.00 | 0.00 | 53 | 1015.9 |
| 20260903041017 | 81 | 157 | 2.0 | 4.0 | 0.00 | 0.00 | 0.00 | 52 | 1016.1 |
| 20260903040017 | 81 | 157 | 2.0 | 4.0 | 0.00 | 0.00 | 0.00 | 52 | 1015.8 |
| 20260903035017 | 81 | 135 | 2.0 | 3.0 | 0.00 | 0.00 | 0.00 | 53 | 1015.9 |
| 20260903034017 | 81 | 90 | 3.0 | 4.0 | 0.00 | 0.00 | 0.00 | 53 | 1015.8 |
| 20260903033017 | 81 | 135 | 1.0 | 3.0 | 0.00 | 0.00 | 0.00 | 53 | 1015.6 |
| 20260903032015 | 82 | 157 | 1.0 | 3.0 | 0.00 | 0.00 | 0.00 | 52 | 1015.4 |
| 20260903031015 | 83 | 157 | 2.0 | 4.0 | 0.00 | 0.00 | 0.00 | 51 | 1015.3 |
| 20260903030017 | 83 | 157 | 2.0 | 4.0 | 0.00 | 0.00 | 0.00 | 51 | 1015.2 |
| 20260903025015 | 83 | 180 | 2.0 | 4.0 | 0.00 | 0.00 | 0.00 | 50 | 1015.0 |
| 20260903024015 | 84 | 180 | 3.0 | 5.0 | 0.00 | 0.00 | 0.00 | 50 | 1014.8 |
| 20260903023015 | 84 | 180 | 3.0 | 4.0 | 0.00 | 0.00 | 0.00 | 48 | 1014.7 |
| 20260903022015 | 85 | 180 | 3.0 | 5.0 | 0.00 | 0.00 | 0.00 | 47 | 1014.5 |